Location: Little Elm
(33.1626°N, 96.9375°W)
Time: 05:48:18
(UTC+00:00)

H-2A R/B (2) - Pass Details

Date: 04 July 2022
Orbit: 426 x 34397 km, 28.9° (Epoch: 12 August)

Event Time Altitude Azimuth Distance (km) Brightness Sun altitude
Rises 06:17:22 0° 117° (ESE) 39,493 10.4 -33.9°
Reaches altitude 10° 07:34:35 10° 119° (ESE) 38,946 10.5 -32.0°
Maximum altitude 10:31:46 28° 115° (ESE) 22,985 9.8 -10.1°
Drops below altitude 10° 11:31:57 10° 88° (E) 12,369 9.5 0.7°
Sets 11:40:16 0° 81° (E) 11,149 9.8 2.2°
